Harrow, Ontario

11:36 PM EST on February 21, 2017 (GMT -0500)
Harrow

Weather History for CXHA - April, 2013

Change the Weather History Date:

Thursday, April 18, 2013

  Actual Average (CYQG) Record (CYQG)
Temperature  
Mean Temperature 58 °F -  
Max Temperature 72 °F 56 °F 82 °F (2004)
Min Temperature 44 °F 39 °F 30 °F (1997)
Degree Days  
Heating Degree Days 7    
Growing Degree Days 8 (Base 50)    
Moisture  
Dew Point 52 °F    
Average Humidity 80    
Maximum Humidity 96    
Minimum Humidity 56    
Precipitation  
Precipitation 0.12 in - - ()
Sea Level Pressure  
Sea Level Pressure 29.76 in    
Wind  
Wind Speed 10 mph ()    
Max Wind Speed 23 mph    
Max Gust Speed 33 mph    
Averages and records for this station are not official NWS values.
T = Trace of Precipitation, MM = Missing Value Source: Averaged Metar Reports

Daily Weather History Graph

Daily Weather History Graph

Search for Another Location

Airport or City:

Trip Planner

Search our weather history database for the weather conditions in past years. The results will help you decide how hot, cold, wet, or windy it might be!

Date:

Astronomy

Apr. 18, 2013 Rise Set
Actual Time 6:46 AM EDT 8:16 PM EDT
Civil Twilight 6:16 AM EDT 8:45 PM EDT
Nautical Twilight 5:41 AM EDT 9:21 PM EDT
Astronomical Twilight 5:04 AM EDT 9:58 PM EDT
Moon 12:55 PM EDT (4/18) 2:31 AM EDT (4/18)
Length of Visible Light 14h 28m
Length of Day
13h 30m
First Quarter, 51% of the Moon is Illuminated
Apr 18
First Quarter
Apr 25
Full
May 2
Last Quarter
May 9
New
May 18
First Quarter

Hourly Weather History & Observations

Time (EDT) Temp. Windchill Dew Point Humidity Pressure Visibility Wind Dir Wind Speed Gust Speed Precip Events Conditions
12:00 AM 45.0 °F 39.7 °F 41.9 °F 89% 30.08 in - NE 10.4 mph - 0.03 in   Unknown
1:00 AM 45.7 °F 42.7 °F 42.3 °F 88% 30.01 in - East 5.8 mph - N/A   Unknown
2:00 AM 48 °F - 40 °F 65% 29.96 in - East 5.8 mph - -  
2:00 AM 47.7 °F - 39.9 °F 75% 29.96 in - East 5.8 mph - N/A   Unknown
3:00 AM 46.6 °F - 38.1 °F 72% 29.92 in - ESE 6.9 mph - N/A   Unknown
4:00 AM 45.9 °F 43.6 °F 40.1 °F 80% 29.89 in - ESE 4.6 mph - N/A   Unknown
5:00 AM 45.7 °F 42.0 °F 41.7 °F 86% 29.86 in - SE 6.9 mph - N/A   Unknown
6:00 AM 45.3 °F 40.6 °F 42.3 °F 89% 29.83 in - SE 9.2 mph - N/A   Unknown
7:00 AM 47.8 °F - 45.9 °F 93% 29.81 in - SE 8.1 mph - N/A   Unknown
8:00 AM 54 °F - 51 °F 88% 29.79 in - South 15.0 mph - -  
8:00 AM 54.0 °F - 51.4 °F 91% 29.79 in - South 15.0 mph - N/A   Unknown
9:00 AM 59.2 °F - 53.4 °F 81% 29.77 in - South 17.3 mph - N/A   Unknown
10:00 AM 62.1 °F - 55.6 °F 79% 29.75 in - South 17.3 mph 23.0 mph N/A   Unknown
11:00 AM 67.5 °F - 58.8 °F 74% 29.72 in - South 21.9 mph 29.9 mph N/A   Unknown
12:00 PM 67.3 °F - 58.1 °F 72% 29.69 in - South 23.0 mph 32.2 mph N/A   Unknown
1:00 PM 69.4 °F - 58.6 °F 68% 29.68 in - South 20.7 mph 33.4 mph N/A   Unknown
2:00 PM 71 °F - 58 °F 56% 29.64 in - SSW 21.9 mph - -  
2:00 PM 70.7 °F - 58.5 °F 65% 29.64 in - SSW 21.9 mph 29.9 mph N/A   Unknown
3:00 PM 72.0 °F - 56.5 °F 58% 29.64 in - SSW 19.6 mph 28.8 mph N/A   Unknown
4:00 PM 72.5 °F - 56.8 °F 58% 29.64 in - SSW 19.6 mph 28.8 mph N/A   Unknown
5:00 PM 63.9 °F - 57.7 °F 80% 29.66 in - West 12.7 mph 20.7 mph N/A   Unknown
6:00 PM 62.8 °F - 58.3 °F 85% 29.66 in - WSW 8.1 mph - 0.02 in   Unknown
7:00 PM 60.8 °F - 56.8 °F 87% 29.66 in - SW 4.6 mph - N/A   Unknown
8:00 PM 59 °F - 57 °F 92% 29.68 in - WSW 12.7 mph - -  
8:00 PM 59.2 °F - 57.2 °F 93% 29.68 in - WSW 12.7 mph - 0.04 in   Unknown
9:00 PM 59.0 °F - 57.4 °F 94% 29.66 in - WSW 9.2 mph - 0.08 in   Unknown
10:00 PM 58.1 °F - 56.7 °F 95% 29.68 in - WSW 11.5 mph - 0.03 in   Unknown
11:00 PM 56.7 °F - 55.4 °F 96% 29.64 in - SSW 4.6 mph - N/A   Unknown